sat.trackr.live / text

‹ back to catalog

STARLINK-30316

NORAD 57673 · 2023-124L

PAYLOAD ACTIVE UNKNOWN

§ Identity

Operator
Country
US
Launch date
2023-08-22
Launch site
AFWTR
Launch vehicle
Mass (kg)
RCS (m²)

Purposes: comms

External: N2YO · Heavens-Above · Gunter

§ Orbital elements

Epoch: 2026-09-20T20:27:28.808928Z

Period
93.85 min
Inclination
53.1639°
Eccentricity
0.0001859
Mean motion
15.34388996 rev/d
Perigee alt
461.5 km
Apogee alt
464.0 km
Semi-major
6,840.9 km
B*
1.7725e-4
RAAN
17.7369°
Arg perigee
42.9617°
Mean anomaly
317.1530°
Rev number
17,348

§ Raw data

STARLINK-303161 57673U 23124L   26263.85241677  .00005615  00000+0  17725-3 0  99902 57673  53.1639  17.7369 0001859  42.9617 317.1530 15.34388996173481

JSON: /api/v1/satellites/57673 · /tle

For live sub-satellite position, see the globe view (requires WebGL).

§ Visibility from observer

Set your observer location to see the next 7 days of passes ≥ 10°. The values pass through the URL so the page stays shareable.

No JS? Fill the form by hand. The geolocation button needs JavaScript.